Location: Newark
(43.0000°N, 1.6781°W)
Time: 10:17:38
(UTC+00:00)

Explorer 7 - Pass Details

Date: 23 April 2021
Orbit: 484 x 677 km, 50.3° (Epoch: 07 May)

Event Time Altitude Azimuth Distance (km) Brightness Sun altitude
Rises 19:04:44 0° 242° (WSW) 2,583 10.9 -1.9°
Reaches altitude 10° 19:06:52 10° 243° (WSW) 1,723 10.1 -2.2°
Maximum altitude 19:10:46 81° 331° (NNW) 541 6.9 -2.9°
Drops below altitude 10° 19:14:56 10° 59° (ENE) 1,834 9.1 -3.6°
Sets 19:17:16 0° 60° (ENE) 2,767 10.0 -4.0°
